Location: Stuttgart
(48.8069°N, 9.1544°E)
Time: 13:55:36
(UTC+01:00)

ISS - Pass Details

Date: 13 November 2017
Orbit: 402 x 407 km, 51.6° (Epoch: 22 November)

Event Time Altitude Azimuth Distance (km) Brightness Sun altitude
Exits shadow 05:02:32 36° 80° (E) 656 -2.3 -24.1°
Drops below altitude 10° 05:04:40 10° 96° (E) 1,455 0.1 -23.7°
Sets 05:06:46 0° 99° (E) 2,313 1.4 -23.4°
